| time (UTC) | temp F | wind direction | speed MPH | gust MPH | rain 1hr in | rain 24hr in | rain mn in | humidity % | barometer mb |
| 20260902205905 | 73 | 8 | 0.0 | 5.0 | 0.00 | 0.00 | 0.00 | 80 | 1010.5 |
| 20260902205633 | 73 | 31 | 2.0 | 5.0 | 0.00 | 0.00 | 0.00 | 81 | 1010.4 |
| 20260902204903 | 73 | 259 | 1.0 | 4.0 | 0.00 | 0.00 | 0.00 | 81 | 1010.5 |
| 20260902204650 | 73 | 73 | 1.0 | 4.0 | 0.00 | 0.00 | 0.00 | 81 | 1010.5 |
| 20260902204134 | 74 | 316 | 1.0 | 6.0 | 0.00 | 0.00 | 0.00 | 78 | 1010.5 |
| 20260902203401 | 74 | 24 | 1.0 | 6.0 | 0.00 | 0.00 | 0.00 | 78 | 1010.5 |
| 20260902202859 | 74 | 12 | 3.0 | 6.0 | 0.00 | 0.00 | 0.00 | 78 | 1010.5 |
| 20260902202616 | 75 | 41 | 2.0 | 6.0 | 0.00 | 0.00 | 0.00 | 75 | 1010.8 |
| 20260902202536 | 74 | 329 | 3.0 | 6.0 | 0.00 | 0.00 | 0.00 | 77 | 1010.6 |
| 20260902201415 | 76 | 37 | 1.0 | 7.0 | 0.00 | 0.00 | 0.00 | 74 | 1010.7 |
| 20260902200855 | 76 | 24 | 0.0 | 9.0 | 0.00 | 0.00 | 0.00 | 72 | 1010.8 |
| 20260902200355 | 78 | 330 | 1.0 | 9.0 | 0.00 | 0.00 | 0.00 | 70 | 1010.9 |
| 20260902195854 | 81 | 34 | 3.0 | 9.0 | 0.00 | 0.00 | 0.00 | 59 | 1011.0 |
| 20260902195355 | 82 | 190 | 0.0 | 10.0 | 0.00 | 0.00 | 0.00 | 58 | 1011.0 |
| 20260902195118 | 82 | 300 | 6.0 | 10.0 | 0.00 | 0.00 | 0.00 | 57 | 1011.1 |
| 20260902194351 | 82 | 299 | 2.0 | 7.0 | 0.00 | 0.00 | 0.00 | 59 | 1011.1 |
| 20260902193851 | 82 | 255 | 4.0 | 9.0 | 0.00 | 0.00 | 0.00 | 60 | 1011.1 |
| 20260902193749 | 81 | 306 | 4.0 | 9.0 | 0.00 | 0.00 | 0.00 | 58 | 1011.1 |
| 20260902192849 | 81 | 272 | 4.0 | 11.0 | 0.00 | 0.00 | 0.00 | 60 | 1011.2 |
| 20260902192351 | 81 | 234 | 5.0 | 11.0 | 0.00 | 0.00 | 0.00 | 60 | 1011.4 |
| 20260902191850 | 81 | 269 | 2.0 | 11.0 | 0.00 | 0.00 | 0.00 | 62 | 1011.5 |
| 20260902191353 | 81 | 314 | 3.0 | 7.0 | 0.00 | 0.00 | 0.00 | 63 | 1011.4 |
| 20260902190851 | 80 | 272 | 4.0 | 12.0 | 0.00 | 0.00 | 0.00 | 66 | 1011.4 |
| 20260902190400 | 80 | 265 | 7.0 | 12.0 | 0.00 | 0.00 | 0.00 | 65 | 1011.6 |
| 20260902185852 | 80 | 307 | 5.0 | 11.0 | 0.00 | 0.00 | 0.00 | 67 | 1011.6 |
| 20260902185619 | 79 | 262 | 5.0 | 12.0 | 0.00 | 0.00 | 0.00 | 66 | 1011.6 |
| 20260902184857 | 79 | 281 | 7.0 | 12.0 | 0.00 | 0.00 | 0.00 | 65 | 1011.6 |
| 20260902184352 | 79 | 240 | 4.0 | 11.0 | 0.00 | 0.00 | 0.00 | 64 | 1011.6 |
| 20260902184117 | 79 | 317 | 5.0 | 13.0 | 0.00 | 0.00 | 0.00 | 65 | 1011.6 |
| 20260902183353 | 78 | 282 | 6.0 | 10.0 | 0.00 | 0.00 | 0.00 | 66 | 1011.6 |
| 20260902182851 | 78 | 292 | 2.0 | 10.0 | 0.00 | 0.00 | 0.00 | 67 | 1011.5 |
| 20260902182347 | 78 | 285 | 4.0 | 10.0 | 0.00 | 0.00 | 0.00 | 65 | 1011.4 |
| 20260902181847 | 78 | 261 | 3.0 | 11.0 | 0.00 | 0.00 | 0.00 | 66 | 1011.4 |
| 20260902181348 | 78 | 292 | 2.0 | 11.0 | 0.00 | 0.00 | 0.00 | 67 | 1011.2 |
| 20260902180848 | 78 | 259 | 6.0 | 10.0 | 0.00 | 0.00 | 0.00 | 66 | 1011.2 |
| 20260902180349 | 78 | 292 | 4.0 | 7.0 | 0.00 | 0.00 | 0.00 | 70 | 1011.2 |
| 20260902175848 | 77 | 292 | 2.0 | 6.0 | 0.00 | 0.00 | 0.00 | 70 | 1011.1 |
| 20260902175349 | 77 | 288 | 4.0 | 9.0 | 0.00 | 0.00 | 0.00 | 70 | 1011.0 |
| 20260902174851 | 76 | 261 | 5.0 | 10.0 | 0.00 | 0.00 | 0.00 | 71 | 1011.0 |
| 20260902174349 | 76 | 267 | 5.0 | 10.0 | 0.00 | 0.00 | 0.00 | 72 | 1011.1 |
| 20260902173850 | 77 | 257 | 2.0 | 9.0 | 0.00 | 0.00 | 0.00 | 74 | 1011.2 |
| 20260902173112 | 76 | 262 | 6.0 | 10.0 | 0.00 | 0.00 | 0.00 | 73 | 1011.5 |
| 20260902172348 | 76 | 276 | 6.0 | 14.0 | 0.00 | 0.00 | 0.00 | 76 | 1011.5 |
| 20260902171848 | 75 | 259 | 9.0 | 14.0 | 0.00 | 0.00 | 0.00 | 76 | 1011.7 |
| 20260902171347 | 75 | 252 | 6.0 | 11.0 | 0.00 | 0.00 | 0.00 | 80 | 1011.6 |
| 20260902170847 | 74 | 248 | 6.0 | 10.0 | 0.00 | 0.00 | 0.00 | 80 | 1011.6 |
| 20260902170346 | 74 | 217 | 4.0 | 13.0 | 0.00 | 0.00 | 0.00 | 81 | 1011.6 |
| 20260902165846 | 74 | 243 | 6.0 | 13.0 | 0.00 | 0.00 | 0.00 | 81 | 1011.5 |
| 20260902165348 | 74 | 254 | 4.0 | 12.0 | 0.00 | 0.00 | 0.00 | 82 | 1011.6 |
| 20260902165114 | 74 | 268 | 4.0 | 9.0 | 0.00 | 0.00 | 0.00 | 85 | 1011.5 |
| 20260902164347 | 72 | 282 | 3.0 | 9.0 | 0.00 | 0.00 | 0.00 | 86 | 1011.5 |
| 20260902163846 | 72 | 272 | 4.0 | 10.0 | 0.00 | 0.00 | 0.00 | 87 | 1011.7 |
| 20260902163351 | 72 | 293 | 5.0 | 10.0 | 0.00 | 0.00 | 0.00 | 87 | 1011.8 |
| 20260902162847 | 72 | 262 | 5.0 | 10.0 | 0.00 | 0.00 | 0.00 | 88 | 1011.8 |
| 20260902162617 | 72 | 267 | 4.0 | 10.0 | 0.00 | 0.00 | 0.00 | 88 | 1011.7 |
| 20260902161844 | 72 | 267 | 4.0 | 7.0 | 0.00 | 0.00 | 0.00 | 88 | 1011.5 |
| 20260902161346 | 71 | 250 | 4.0 | 6.0 | 0.00 | 0.00 | 0.00 | 89 | 1011.6 |
| 20260902160843 | 71 | 258 | 2.0 | 5.0 | 0.00 | 0.00 | 0.00 | 89 | 1011.5 |
| 20260902160343 | 71 | 317 | 1.0 | 6.0 | 0.00 | 0.00 | 0.00 | 90 | 1011.6 |
| 20260902155845 | 72 | 358 | 0.0 | 6.0 | 0.00 | 0.00 | 0.00 | 89 | 1011.8 |
| 20260902155341 | 72 | 307 | 1.0 | 6.0 | 0.00 | 0.00 | 0.00 | 89 | 1011.9 |
| 20260902154839 | 72 | 289 | 2.0 | 6.0 | 0.00 | 0.00 | 0.00 | 90 | 1011.5 |
| 20260902154337 | 71 | 336 | 2.0 | 6.0 | 0.00 | 0.00 | 0.00 | 93 | 1011.5 |
| 20260902153837 | 71 | 255 | 0.0 | 1.0 | 0.00 | 0.00 | 0.00 | 93 | 1011.4 |
| 20260902153334 | 71 | 12 | 0.0 | 0.0 | 0.00 | 0.00 | 0.00 | 94 | 1011.3 |
| 20260902152835 | 70 | 12 | 0.0 | 1.0 | 0.00 | 0.00 | 0.00 | 94 | 1011.1 |
| 20260902152334 | 70 | 12 | 0.0 | 2.0 | 0.00 | 0.00 | 0.00 | 94 | 1010.9 |
| 20260902151834 | 70 | 34 | 0.0 | 2.0 | 0.00 | 0.00 | 0.00 | 93 | 1010.8 |
| 20260902151334 | 70 | 300 | 1.0 | 3.0 | 0.00 | 0.00 | 0.00 | 93 | 1010.9 |
| 20260902150834 | 70 | 62 | 2.0 | 3.0 | 0.00 | 0.00 | 0.00 | 92 | 1010.7 |
| 20260902150559 | 70 | 41 | 0.0 | 2.0 | 0.00 | 0.00 | 0.00 | 91 | 1010.8 |
| 20260902150057 | 71 | 309 | 0.0 | 3.0 | 0.00 | 0.00 | 0.00 | 91 | 1010.8 |
| 20260902145331 | 71 | 61 | 2.0 | 3.0 | 0.00 | 0.00 | 0.00 | 91 | 1010.2 |
| 20260902144832 | 71 | 42 | 1.0 | 2.0 | 0.00 | 0.00 | 0.00 | 91 | 1009.9 |
| 20260902144331 | 71 | 92 | 0.0 | 2.0 | 0.00 | 0.00 | 0.00 | 91 | 1009.6 |
| 20260902143831 | 71 | 92 | 0.0 | 3.0 | 0.00 | 0.00 | 0.00 | 92 | 1009.5 |
| 20260902143331 | 71 | 90 | 1.0 | 3.0 | 0.00 | 0.00 | 0.00 | 92 | 1009.2 |
| 20260902142832 | 71 | 110 | 1.0 | 3.0 | 0.00 | 0.00 | 0.00 | 91 | 1009.5 |
| 20260902142330 | 71 | 72 | 0.0 | 3.0 | 0.00 | 0.00 | 0.00 | 91 | 1010.0 |
| 20260902141832 | 71 | 19 | 0.0 | 4.0 | 0.00 | 0.00 | 0.00 | 92 | 1010.9 |
| 20260902140830 | 71 | 290 | 0.0 | 5.0 | 0.00 | 0.00 | 0.00 | 93 | 1010.9 |
| 20260902140409 | 71 | 254 | 1.0 | 11.0 | 0.00 | 0.00 | 0.00 | 94 | 1010.9 |
| 20260902135332 | 71 | 274 | 4.0 | 13.0 | 0.00 | 0.00 | 0.00 | 96 | 1012.5 |
| 20260902134831 | 71 | 271 | 6.0 | 13.0 | 0.00 | 0.00 | 0.00 | 97 | 1012.8 |
| 20260902134331 | 71 | 251 | 7.0 | 14.0 | 0.00 | 0.00 | 0.00 | 97 | 1012.9 |
| 20260902133332 | 71 | 319 | 5.0 | 13.0 | 0.00 | 0.00 | 0.00 | 98 | 1012.8 |
| 20260902132832 | 71 | 326 | 6.0 | 12.0 | 0.00 | 0.00 | 0.00 | 98 | 1012.7 |
| 20260902132604 | 71 | 271 | 6.0 | 13.0 | 0.00 | 0.00 | 0.00 | 98 | 1012.4 |
| 20260902131831 | 71 | 290 | 6.0 | 13.0 | 0.00 | 0.00 | 0.00 | 98 | 1012.3 |
| 20260902131330 | 71 | 327 | 4.0 | 7.0 | 0.00 | 0.00 | 0.00 | 98 | 1012.1 |
| 20260902131106 | 71 | 275 | 4.0 | 9.0 | 0.00 | 0.00 | 0.00 | 98 | 1012.0 |
| 20260902130332 | 71 | 267 | 6.0 | 10.0 | 0.00 | 0.00 | 0.00 | 98 | 1012.0 |
| 20260902125831 | 70 | 281 | 3.0 | 10.0 | 0.00 | 0.00 | 0.00 | 98 | 1011.8 |
| 20260902125558 | 69 | 269 | 2.0 | 5.0 | 0.00 | 0.00 | 0.00 | 98 | 1011.7 |
| 20260902125104 | 68 | 278 | 1.0 | 2.0 | 0.00 | 0.00 | 0.00 | 98 | 1011.6 |
| 20260902124332 | 68 | 312 | 0.0 | 1.0 | 0.00 | 0.00 | 0.00 | 98 | 1011.5 |
| 20260902123834 | 68 | 312 | 0.0 | 2.0 | 0.00 | 0.00 | 0.00 | 98 | 1011.3 |
| 20260902123557 | 69 | 27 | 1.0 | 2.0 | 0.00 | 0.00 | 0.00 | 98 | 1011.2 |
| 20260902122827 | 69 | 34 | 0.0 | 2.0 | 0.00 | 0.00 | 0.00 | 98 | 1011.2 |
| 20260902122327 | 69 | 52 | 1.0 | 2.0 | 0.00 | 0.00 | 0.00 | 98 | 1011.3 |
| 20260902121827 | 69 | 290 | 0.0 | 1.0 | 0.00 | 0.00 | 0.00 | 98 | 1011.3 |
| 20260902120827 | 68 | 316 | 0.0 | 0.0 | 0.00 | 0.00 | 0.00 | 98 | 1011.1 |
| 20260902120328 | 68 | 316 | 0.0 | 1.0 | 0.00 | 0.00 | 0.00 | 98 | 1010.9 |
| 20260902115827 | 68 | 316 | 0.0 | 3.0 | 0.00 | 0.00 | 0.00 | 98 | 1010.8 |
| 20260902115324 | 68 | 324 | 0.0 | 3.0 | 0.00 | 0.00 | 0.00 | 98 | 1010.6 |
| 20260902115054 | 68 | 306 | 0.0 | 3.0 | 0.00 | 0.00 | 0.00 | 97 | 1010.7 |
| 20260902113824 | 69 | 19 | 0.0 | 2.0 | 0.00 | 0.00 | 0.00 | 98 | 1010.6 |
| 20260902113325 | 69 | 19 | 0.0 | 1.0 | 0.00 | 0.00 | 0.00 | 97 | 1010.5 |
| 20260902112824 | 69 | 345 | 0.0 | 0.0 | 0.00 | 0.00 | 0.00 | 97 | 1010.5 |
| 20260902112324 | 69 | 345 | 0.0 | 0.0 | 0.00 | 0.00 | 0.00 | 97 | 1010.4 |
| 20260902111824 | 69 | 345 | 0.0 | 0.0 | 0.00 | 0.00 | 0.00 | 97 | 1010.4 |
| 20260902111323 | 70 | 345 | 0.0 | 0.0 | 0.00 | 0.00 | 0.00 | 98 | 1010.3 |
| 20260902110822 | 70 | 345 | 0.0 | 0.0 | 0.00 | 0.00 | 0.00 | 98 | 1010.3 |
| 20260902110319 | 70 | 345 | 0.0 | 0.0 | 0.00 | 0.00 | 0.00 | 98 | 1010.3 |
| 20260902105821 | 70 | 309 | 0.0 | 1.0 | 0.00 | 0.00 | 0.00 | 98 | 1010.4 |
| 20260902105321 | 71 | 309 | 0.0 | 2.0 | 0.00 | 0.00 | 0.00 | 98 | 1010.4 |
| 20260902104818 | 71 | 274 | 0.0 | 3.0 | 0.00 | 0.00 | 0.00 | 98 | 1010.6 |
| 20260902104318 | 71 | 265 | 0.0 | 3.0 | 0.00 | 0.00 | 0.00 | 98 | 1010.6 |
| 20260902104050 | 71 | 299 | 0.0 | 3.0 | 0.00 | 0.00 | 0.00 | 98 | 1010.4 |
| 20260902103319 | 71 | 320 | 0.0 | 3.0 | 0.00 | 0.00 | 0.00 | 98 | 1010.5 |
| 20260902102815 | 71 | 312 | 0.0 | 3.0 | 0.00 | 0.00 | 0.00 | 98 | 1010.5 |
| 20260902102540 | 71 | 293 | 1.0 | 5.0 | 0.00 | 0.00 | 0.00 | 98 | 1010.5 |
| 20260902101814 | 71 | 300 | 1.0 | 5.0 | 0.00 | 0.00 | 0.00 | 98 | 1010.5 |
| 20260902101316 | 71 | 309 | 0.0 | 5.0 | 0.00 | 0.00 | 0.00 | 98 | 1010.4 |
| 20260902100814 | 71 | 306 | 0.0 | 4.0 | 0.00 | 0.00 | 0.00 | 98 | 1010.4 |
| 20260902100313 | 71 | 343 | 1.0 | 4.0 | 0.00 | 0.00 | 0.00 | 98 | 1010.4 |
| 20260902095814 | 71 | 269 | 1.0 | 3.0 | 0.00 | 0.00 | 0.00 | 98 | 1010.4 |
| 20260902095308 | 70 | 267 | 1.0 | 4.0 | 0.00 | 0.00 | 0.00 | 97 | 1010.3 |
| 20260902095037 | 70 | 265 | 1.0 | 4.0 | 0.00 | 0.00 | 0.00 | 97 | 1010.3 |
| 20260902094307 | 70 | 279 | 3.0 | 5.0 | 0.00 | 0.00 | 0.00 | 97 | 1010.4 |
| 20260902093809 | 70 | 289 | 3.0 | 5.0 | 0.00 | 0.00 | 0.00 | 98 | 1010.3 |
| 20260902093532 | 70 | 257 | 2.0 | 4.0 | 0.00 | 0.00 | 0.00 | 97 | 1010.1 |
| 20260902092804 | 69 | 265 | 2.0 | 4.0 | 0.00 | 0.00 | 0.00 | 97 | 1010.2 |
| 20260902092305 | 69 | 250 | 2.0 | 3.0 | 0.00 | 0.00 | 0.00 | 97 | 1010.1 |
| 20260902091804 | 69 | 258 | 1.0 | 3.0 | 0.00 | 0.00 | 0.00 | 97 | 1010.1 |
| 20260902091304 | 69 | 259 | 2.0 | 3.0 | 0.00 | 0.00 | 0.00 | 97 | 1010.2 |
| 20260902090804 | 69 | 259 | 1.0 | 3.0 | 0.00 | 0.00 | 0.00 | 97 | 1010.2 |
| 20260902090305 | 69 | 261 | 2.0 | 3.0 | 0.00 | 0.00 | 0.00 | 97 | 1010.0 |
| 20260902085804 | 69 | 261 | 2.0 | 3.0 | 0.00 | 0.00 | 0.00 | 97 | 1010.1 |
| 20260902085308 | 69 | 230 | 1.0 | 1.0 | 0.00 | 0.00 | 0.00 | 97 | 1010.1 |
| 20260902084803 | 69 | 231 | 0.0 | 0.0 | 0.00 | 0.00 | 0.00 | 97 | 1010.1 |
| 20260902084301 | 69 | 353 | 0.0 | 0.0 | 0.00 | 0.00 | 0.00 | 97 | 1010.1 |
| 20260902084028 | 69 | 353 | 0.0 | 0.0 | 0.00 | 0.00 | 0.00 | 97 | 1010.0 |
| 20260902083528 | 70 | 310 | 0.0 | 2.0 | 0.00 | 0.00 | 0.00 | 97 | 1010.1 |
| 20260902083034 | 70 | 310 | 0.0 | 2.0 | 0.00 | 0.00 | 0.00 | 97 | 1010.0 |
| 20260902082259 | 69 | 313 | 0.0 | 1.0 | 0.00 | 0.00 | 0.00 | 97 | 1010.1 |
| 20260902081757 | 69 | 310 | 0.0 | 2.0 | 0.00 | 0.00 | 0.00 | 97 | 1010.0 |
| 20260902081258 | 69 | 309 | 0.0 | 2.0 | 0.00 | 0.00 | 0.00 | 97 | 1010.1 |
| 20260902080757 | 69 | 25 | 0.0 | 3.0 | 0.00 | 0.00 | 0.00 | 96 | 1010.1 |
| 20260902080523 | 69 | 27 | 2.0 | 3.0 | 0.00 | 0.00 | 0.00 | 96 | 1010.1 |
| 20260902075756 | 69 | 316 | 0.0 | 0.0 | 0.00 | 0.00 | 0.00 | 96 | 1010.0 |
| 20260902075255 | 70 | 27 | 0.0 | 0.0 | 0.00 | 0.00 | 0.00 | 96 | 1009.9 |
| 20260902074754 | 70 | 27 | 0.0 | 0.0 | 0.00 | 0.00 | 0.00 | 96 | 1009.9 |
| 20260902074255 | 70 | 25 | 0.0 | 0.0 | 0.00 | 0.00 | 0.00 | 96 | 1009.9 |
| 20260902073754 | 70 | 25 | 0.0 | 3.0 | 0.00 | 0.00 | 0.00 | 96 | 1010.0 |
| 20260902073254 | 71 | 25 | 2.0 | 3.0 | 0.00 | 0.00 | 0.00 | 96 | 1010.0 |
| 20260902072752 | 71 | 15 | 0.0 | 2.0 | 0.00 | 0.00 | 0.00 | 96 | 1010.0 |
| 20260902072253 | 71 | 15 | 0.0 | 5.0 | 0.00 | 0.00 | 0.00 | 96 | 1010.1 |
| 20260902071753 | 71 | 329 | 1.0 | 7.0 | 0.00 | 0.00 | 0.00 | 96 | 1010.0 |
| 20260902071253 | 71 | 254 | 5.0 | 7.0 | 0.00 | 0.00 | 0.00 | 96 | 1009.9 |
| 20260902070748 | 71 | 262 | 4.0 | 6.0 | 0.00 | 0.00 | 0.00 | 96 | 1009.9 |
| 20260902070248 | 71 | 261 | 4.0 | 10.0 | 0.00 | 0.00 | 0.00 | 96 | 1009.7 |
| 20260902065748 | 71 | 268 | 4.0 | 10.0 | 0.00 | 0.00 | 0.00 | 96 | 1009.6 |
| 20260902065516 | 71 | 255 | 4.0 | 7.0 | 0.00 | 0.00 | 0.00 | 96 | 1009.5 |
| 20260902064747 | 71 | 255 | 4.0 | 5.0 | 0.00 | 0.00 | 0.00 | 96 | 1009.5 |
| 20260902064246 | 71 | 259 | 3.0 | 5.0 | 0.00 | 0.00 | 0.00 | 96 | 1009.4 |
| 20260902063745 | 71 | 254 | 3.0 | 5.0 | 0.00 | 0.00 | 0.00 | 96 | 1009.4 |
| 20260902063244 | 71 | 247 | 3.0 | 5.0 | 0.00 | 0.00 | 0.00 | 96 | 1009.4 |
| 20260902063016 | 70 | 227 | 3.0 | 5.0 | 0.00 | 0.00 | 0.00 | 96 | 1009.2 |
| 20260902061743 | 70 | 223 | 4.0 | 7.0 | 0.00 | 0.00 | 0.00 | 96 | 1009.4 |
| 20260902061242 | 70 | 233 | 2.0 | 6.0 | 0.00 | 0.00 | 0.00 | 96 | 1009.4 |
| 20260902060742 | 70 | 216 | 2.0 | 6.0 | 0.00 | 0.00 | 0.00 | 96 | 1009.6 |
| 20260902060244 | 70 | 244 | 3.0 | 6.0 | 0.00 | 0.00 | 0.00 | 96 | 1009.7 |
| 20260902055740 | 70 | 250 | 3.0 | 5.0 | 0.00 | 0.00 | 0.00 | 96 | 1009.7 |
| 20260902055238 | 70 | 221 | 2.0 | 5.0 | 0.00 | 0.00 | 0.00 | 95 | 1009.7 |
| 20260902054739 | 70 | 241 | 2.0 | 5.0 | 0.00 | 0.00 | 0.00 | 95 | 1009.7 |
| 20260902054240 | 70 | 216 | 2.0 | 5.0 | 0.00 | 0.00 | 0.00 | 95 | 1009.8 |
| 20260902053239 | 71 | 209 | 2.0 | 4.0 | 0.00 | 0.00 | 0.00 | 95 | 1009.8 |
| 20260902052738 | 71 | 219 | 2.0 | 5.0 | 0.00 | 0.00 | 0.00 | 95 | 1009.8 |
| 20260902052237 | 71 | 221 | 2.0 | 5.0 | 0.00 | 0.00 | 0.00 | 95 | 1009.9 |
| 20260902051734 | 71 | 221 | 2.0 | 5.0 | 0.00 | 0.00 | 0.00 | 94 | 1010.0 |
| 20260902051234 | 71 | 236 | 3.0 | 5.0 | 0.00 | 0.00 | 0.00 | 94 | 1010.1 |
| 20260902050734 | 71 | 221 | 2.0 | 6.0 | 0.00 | 0.00 | 0.00 | 94 | 1010.2 |
| 20260902050233 | 71 | 226 | 3.0 | 6.0 | 0.00 | 0.00 | 0.00 | 94 | 1010.2 |
| 20260902045731 | 71 | 217 | 2.0 | 6.0 | 0.00 | 0.00 | 0.00 | 94 | 1010.2 |
| 20260902045231 | 71 | 237 | 2.0 | 5.0 | 0.00 | 0.00 | 0.00 | 94 | 1010.2 |
| 20260902044734 | 71 | 230 | 3.0 | 5.0 | 0.00 | 0.00 | 0.00 | 93 | 1010.2 |
| 20260902044231 | 71 | 223 | 2.0 | 5.0 | 0.00 | 0.00 | 0.00 | 93 | 1010.2 |
| 20260902043731 | 71 | 252 | 3.0 | 5.0 | 0.00 | 0.00 | 0.00 | 93 | 1010.3 |
| 20260902043231 | 71 | 238 | 2.0 | 5.0 | 0.00 | 0.00 | 0.00 | 92 | 1010.1 |
| 20260902042231 | 71 | 254 | 3.0 | 7.0 | 0.00 | 0.00 | 0.00 | 92 | 1010.3 |
| 20260902041731 | 71 | 276 | 5.0 | 7.0 | 0.00 | 0.00 | 0.00 | 92 | 1010.3 |
| 20260902041231 | 71 | 248 | 4.0 | 7.0 | 0.00 | 0.00 | 0.00 | 92 | 1010.3 |
| 20260902040732 | 71 | 251 | 3.0 | 7.0 | 0.00 | 0.00 | 0.00 | 92 | 1010.3 |
| 20260902040234 | 71 | 245 | 4.0 | 9.0 | 0.00 | 0.00 | 0.00 | 92 | 1010.2 |
| 20260902035731 | 71 | 245 | 4.0 | 9.0 | 0.00 | 0.00 | 0.00 | 92 | 1010.2 |
| 20260902035505 | 71 | 254 | 3.0 | 10.0 | 0.00 | 0.00 | 0.00 | 92 | 1010.3 |
| 20260902034956 | 71 | 202 | 3.0 | 10.0 | 0.00 | 0.00 | 0.00 | 92 | 1010.3 |
| 20260902034508 | 71 | 233 | 3.0 | 7.0 | 0.00 | 0.00 | 0.00 | 93 | 1010.3 |
| 20260902033732 | 71 | 255 | 3.0 | 7.0 | 0.00 | 0.00 | 0.00 | 93 | 1010.2 |
| 20260902033231 | 71 | 231 | 3.0 | 7.0 | 0.00 | 0.00 | 0.00 | 93 | 1010.3 |
| 20260902032959 | 71 | 224 | 2.0 | 7.0 | 0.00 | 0.00 | 0.00 | 94 | 1010.2 |
| 20260902032234 | 71 | 214 | 4.0 | 7.0 | 0.00 | 0.00 | 0.00 | 94 | 1010.3 |
| 20260902031731 | 71 | 209 | 3.0 | 6.0 | 0.00 | 0.00 | 0.00 | 94 | 1010.3 |
| 20260902031230 | 71 | 247 | 3.0 | 9.0 | 0.00 | 0.00 | 0.00 | 94 | 1010.2 |
| 20260902030731 | 71 | 265 | 4.0 | 9.0 | 0.00 | 0.00 | 0.00 | 94 | 1010.2 |
| 20260902030231 | 71 | 254 | 4.0 | 6.0 | 0.00 | 0.00 | 0.00 | 94 | 1010.3 |
| 20260902025732 | 71 | 279 | 4.0 | 6.0 | 0.00 | 0.00 | 0.00 | 94 | 1010.4 |
| 20260902025231 | 71 | 257 | 4.0 | 6.0 | 0.00 | 0.00 | 0.00 | 94 | 1010.5 |
| 20260902024731 | 71 | 231 | 3.0 | 7.0 | 0.00 | 0.00 | 0.00 | 94 | 1010.3 |
| 20260902024231 | 71 | 250 | 4.0 | 10.0 | 0.00 | 0.00 | 0.00 | 94 | 1010.4 |
| 20260902023731 | 71 | 241 | 4.0 | 10.0 | 0.00 | 0.00 | 0.00 | 94 | 1010.3 |
| 20260902023232 | 71 | 210 | 5.0 | 10.0 | 0.00 | 0.00 | 0.00 | 94 | 1010.2 |
| 20260902022731 | 71 | 265 | 4.0 | 7.0 | 0.00 | 0.00 | 0.00 | 94 | 1010.3 |
| 20260902022230 | 71 | 158 | 3.0 | 10.0 | 0.00 | 0.00 | 0.00 | 94 | 1010.2 |
| 20260902021731 | 71 | 234 | 3.0 | 10.0 | 0.00 | 0.00 | 0.00 | 93 | 1010.3 |
| 20260902021231 | 71 | 175 | 3.0 | 10.0 | 0.00 | 0.00 | 0.00 | 93 | 1010.3 |
| 20260902020731 | 72 | 179 | 4.0 | 10.0 | 0.00 | 0.00 | 0.00 | 93 | 1010.4 |
| 20260902020231 | 72 | 214 | 3.0 | 6.0 | 0.00 | 0.00 | 0.00 | 93 | 1010.5 |
| 20260902015731 | 72 | 109 | 1.0 | 6.0 | 0.00 | 0.00 | 0.00 | 93 | 1010.5 |
| 20260902015232 | 72 | 183 | 2.0 | 7.0 | 0.00 | 0.00 | 0.00 | 92 | 1010.4 |
| 20260902014731 | 72 | 148 | 2.0 | 7.0 | 0.00 | 0.00 | 0.00 | 93 | 1010.3 |
| 20260902014231 | 72 | 157 | 4.0 | 7.0 | 0.00 | 0.00 | 0.00 | 93 | 1010.4 |
| 20260902013731 | 72 | 172 | 3.0 | 7.0 | 0.00 | 0.00 | 0.00 | 93 | 1010.5 |
| 20260902013459 | 72 | 193 | 3.0 | 6.0 | 0.00 | 0.00 | 0.00 | 92 | 1010.4 |
| 20260902012726 | 72 | 183 | 2.0 | 6.0 | 0.00 | 0.00 | 0.00 | 92 | 1010.3 |
| 20260902012226 | 72 | 162 | 1.0 | 4.0 | 0.00 | 0.00 | 0.00 | 92 | 1010.3 |
| 20260902011955 | 73 | 175 | 0.0 | 3.0 | 0.00 | 0.00 | 0.00 | 91 | 1010.3 |
| 20260902011450 | 73 | 111 | 0.0 | 3.0 | 0.00 | 0.00 | 0.00 | 91 | 1010.2 |
| 20260902010726 | 73 | 179 | 0.0 | 5.0 | 0.00 | 0.00 | 0.00 | 91 | 1010.2 |
| 20260902010228 | 73 | 186 | 2.0 | 5.0 | 0.00 | 0.00 | 0.00 | 91 | 1010.1 |
| 20260902005720 | 73 | 157 | 2.0 | 6.0 | 0.00 | 0.00 | 0.00 | 91 | 1010.0 |
| 20260902005455 | 73 | 206 | 2.0 | 6.0 | 0.00 | 0.00 | 0.00 | 91 | 1010.0 |
| 20260902004720 | 73 | 192 | 1.0 | 3.0 | 0.00 | 0.00 | 0.00 | 91 | 1010.1 |
| 20260902004220 | 74 | 178 | 1.0 | 4.0 | 0.00 | 0.00 | 0.00 | 91 | 1010.2 |
| 20260902003720 | 74 | 162 | 1.0 | 9.0 | 0.00 | 0.00 | 0.00 | 91 | 1010.3 |
| 20260902003220 | 74 | 96 | 2.0 | 9.0 | 0.00 | 0.00 | 0.00 | 91 | 1010.2 |
| 20260902002942 | 74 | 192 | 1.0 | 6.0 | 0.00 | 0.00 | 0.00 | 91 | 1010.2 |
| 20260902002218 | 74 | 151 | 2.0 | 6.0 | 0.00 | 0.00 | 0.00 | 92 | 1010.3 |
| 20260902001718 | 73 | 212 | 2.0 | 6.0 | 0.00 | 0.00 | 0.00 | 92 | 1010.4 |
| 20260902001217 | 73 | 121 | 2.0 | 10.0 | 0.00 | 0.00 | 0.00 | 93 | 1010.4 |
| 20260902000715 | 73 | 178 | 2.0 | 10.0 | 0.00 | 0.00 | 0.00 | 93 | 1010.4 |
| 20260902000213 | 72 | 195 | 4.0 | 6.0 | 0.00 | 0.00 | 0.00 | 93 | 1010.4 |
| 20260901235708 | 72 | 158 | 1.0 | 5.0 | 0.00 | 0.00 | 0.00 | 92 | 1010.4 |
| 20260901235208 | 72 | 80 | 0.0 | 3.0 | 0.00 | 0.00 | 0.00 | 92 | 1010.4 |
| 20260901234931 | 72 | 68 | 2.0 | 5.0 | 0.00 | 0.00 | 0.00 | 92 | 1010.5 |
| 20260901234207 | 72 | 58 | 3.0 | 5.0 | 0.00 | 0.00 | 0.00 | 91 | 1010.5 |
| 20260901233706 | 72 | 90 | 2.0 | 3.0 | 0.00 | 0.00 | 0.00 | 91 | 1010.5 |
| 20260901233207 | 72 | 55 | 2.0 | 3.0 | 0.00 | 0.00 | 0.00 | 91 | 1010.4 |
| 20260901232935 | 72 | 68 | 2.0 | 4.0 | 0.00 | 0.00 | 0.00 | 92 | 1010.4 |
| 20260901232208 | 72 | 62 | 2.0 | 4.0 | 0.00 | 0.00 | 0.00 | 92 | 1010.4 |
| 20260901231707 | 72 | 75 | 1.0 | 4.0 | 0.00 | 0.00 | 0.00 | 93 | 1010.4 |
| 20260901231210 | 71 | 59 | 2.0 | 5.0 | 0.00 | 0.00 | 0.00 | 93 | 1010.5 |
| 20260901230707 | 71 | 61 | 2.0 | 5.0 | 0.00 | 0.00 | 0.00 | 93 | 1010.6 |
| 20260901230209 | 71 | 82 | 2.0 | 4.0 | 0.00 | 0.00 | 0.00 | 93 | 1010.7 |
| 20260901225654 | 71 | 73 | 2.0 | 3.0 | 0.00 | 0.00 | 0.00 | 93 | 1010.8 |
| 20260901225427 | 70 | 69 | 0.0 | 3.0 | 0.00 | 0.00 | 0.00 | 93 | 1010.8 |
| 20260901224926 | 70 | 103 | 2.0 | 5.0 | 0.00 | 0.00 | 0.00 | 94 | 1010.9 |
| 20260901224154 | 70 | 76 | 3.0 | 5.0 | 0.00 | 0.00 | 0.00 | 94 | 1010.8 |
| 20260901223653 | 69 | 63 | 2.0 | 5.0 | 0.00 | 0.00 | 0.00 | 94 | 1010.8 |
| 20260901223152 | 69 | 87 | 2.0 | 7.0 | 0.00 | 0.00 | 0.00 | 94 | 1010.9 |
| 20260901222651 | 69 | 78 | 3.0 | 7.0 | 0.00 | 0.00 | 0.00 | 94 | 1011.0 |
| 20260901222419 | 69 | 73 | 4.0 | 7.0 | 0.00 | 0.00 | 0.00 | 94 | 1011.0 |
| 20260901221651 | 69 | 104 | 3.0 | 7.0 | 0.00 | 0.00 | 0.00 | 93 | 1011.0 |
| 20260901221150 | 69 | 89 | 5.0 | 11.0 | 0.00 | 0.00 | 0.00 | 93 | 1011.0 |
| 20260901220921 | 69 | 83 | 6.0 | 11.0 | 0.00 | 0.00 | 0.00 | 93 | 1011.1 |
| 20260901220150 | 69 | 116 | 4.0 | 10.0 | 0.00 | 0.00 | 0.00 | 93 | 1011.1 |
| 20260901215650 | 69 | 80 | 5.0 | 9.0 | 0.00 | 0.00 | 0.00 | 92 | 1011.1 |
| 20260901215418 | 69 | 97 | 5.0 | 9.0 | 0.00 | 0.00 | 0.00 | 92 | 1011.1 |
| 20260901214650 | 69 | 95 | 3.0 | 7.0 | 0.00 | 0.00 | 0.00 | 92 | 1011.1 |
| 20260901214416 | 69 | 76 | 5.0 | 7.0 | 0.00 | 0.00 | 0.00 | 92 | 1011.2 |
| 20260901213650 | 69 | 110 | 3.0 | 7.0 | 0.00 | 0.00 | 0.00 | 92 | 1011.2 |
| 20260901213149 | 69 | 97 | 4.0 | 10.0 | 0.00 | 0.00 | 0.00 | 92 | 1011.3 |
| 20260901212649 | 69 | 104 | 4.0 | 10.0 | 0.00 | 0.00 | 0.00 | 92 | 1011.3 |
| 20260901212149 | 69 | 90 | 5.0 | 9.0 | 0.00 | 0.00 | 0.00 | 92 | 1011.3 |
| 20260901211648 | 70 | 87 | 6.0 | 7.0 | 0.00 | 0.00 | 0.00 | 91 | 1011.3 |
| 20260901211416 | 70 | 86 | 4.0 | 7.0 | 0.00 | 0.00 | 0.00 | 91 | 1011.3 |
| 20260901210647 | 70 | 55 | 4.0 | 7.0 | 0.00 | 0.00 | 0.00 | 91 | 1011.5 |